Time,TemperatureF,DewpointF,PressureIn,WindDirection,WindDirectionDegrees,WindSpeedMPH,WindSpeedGustMPH,Humidity,HourlyPrecipIn,Conditions,Clouds,dailyrainin,SoftwareType,DateUTC
2013-01-05 00:02:00,72.5,57.4,29.35,ESE,112,0.0,0.0,59,0.00,CLR,,0.00,WeatherDisplay:10.37,2013-01-04 13:02:00,
2013-01-05 00:07:00,72.3,57.2,29.35,SSE,158,0.0,0.0,59,0.00,CLR,,0.00,WeatherDisplay:10.37,2013-01-04 13:07:00,
2013-01-05 00:12:00,72.1,57.0,29.35,NNE,22,0.0,0.0,59,0.00,CLR,,0.00,WeatherDisplay:10.37,2013-01-04 13:12:00,
2013-01-05 00:17:00,72.1,57.0,29.35,ESE,112,0.0,0.0,59,0.00,CLR,,0.00,WeatherDisplay:10.37,2013-01-04 13:17:00,
2013-01-05 00:22:00,72.0,57.3,29.35,NE,45,0.0,0.0,60,0.00,CLR,,0.00,WeatherDisplay:10.37,2013-01-04 13:22:00,
2013-01-05 00:27:00,72.0,57.3,29.35,NE,45,0.0,0.0,60,0.00,CLR,,0.00,WeatherDisplay:10.37,2013-01-04 13:27:00,
2013-01-05 00:32:00,71.6,57.4,29.35,North,0,2.3,0.0,61,0.00,CLR,,0.00,WeatherDisplay:10.37,2013-01-04 13:32:00,
2013-01-05 00:37:00,71.6,57.4,29.35,NW,315,0.0,0.0,61,0.00,CLR,,0.00,WeatherDisplay:10.37,2013-01-04 13:37:00,
2013-01-05 00:42:00,71.6,57.0,29.35,SSE,158,0.0,0.0,60,0.00,CLR,,0.00,WeatherDisplay:10.37,2013-01-04 13:42:00,
2013-01-05 00:47:00,71.6,57.0,29.35,NE,45,0.0,0.0,60,0.00,CLR,,0.00,WeatherDisplay:10.37,2013-01-04 13:47:00,
2013-01-05 00:52:00,71.4,57.3,29.35,WSW,248,0.0,0.0,61,0.00,CLR,,0.00,WeatherDisplay:10.37,2013-01-04 13:52:00,
2013-01-05 00:57:00,71.2,57.1,29.35,ESE,112,0.0,0.0,61,0.00,CLR,,0.00,WeatherDisplay:10.37,2013-01-04 13:57:00,
2013-01-05 01:02:00,71.2,57.1,29.35,ESE,112,0.0,0.0,61,0.00,CLR,,0.00,WeatherDisplay:10.37,2013-01-04 14:02:00,
2013-01-05 01:07:00,71.1,57.4,29.35,NE,45,0.0,0.0,62,0.00,CLR,,0.00,WeatherDisplay:10.37,2013-01-04 14:07:00,
2013-01-05 01:12:00,71.1,57.4,29.35,SSW,202,0.0,0.0,62,0.00,CLR,,0.00,WeatherDisplay:10.37,2013-01-04 14:12:00,
2013-01-05 01:17:00,71.1,56.9,29.35,SSW,202,0.0,0.0,61,0.00,CLR,,0.00,WeatherDisplay:10.37,2013-01-04 14:17:00,
2013-01-05 01:22:00,71.1,57.4,29.35,SE,135,0.0,0.0,62,0.00,CLR,,0.00,WeatherDisplay:10.37,2013-01-04 14:22:00,
2013-01-05 01:27:00,70.7,56.6,29.35,SSW,202,0.0,0.0,61,0.00,CLR,,0.00,WeatherDisplay:10.37,2013-01-04 14:27:00,
2013-01-05 01:32:00,70.7,57.0,29.35,East,90,0.0,0.0,62,0.00,CLR,,0.00,WeatherDisplay:10.37,2013-01-04 14:32:00,
2013-01-05 01:37:00,70.5,56.9,29.35,NNE,22,0.0,0.0,62,0.00,CLR,,0.00,WeatherDisplay:10.37,2013-01-04 14:37:00,
2013-01-05 01:42:00,70.3,57.1,29.35,SE,135,0.0,0.0,63,0.00,CLR,,0.00,WeatherDisplay:10.37,2013-01-04 14:42:00,
2013-01-05 01:47:00,70.0,56.8,29.35,SSE,158,0.0,0.0,63,0.00,CLR,,0.00,WeatherDisplay:10.37,2013-01-04 14:47:00,
2013-01-05 01:52:00,70.0,56.8,29.35,SE,135,2.3,2.3,63,0.00,CLR,,0.00,WeatherDisplay:10.37,2013-01-04 14:52:00,
2013-01-05 01:57:00,70.0,57.2,29.35,SSE,158,0.0,0.0,64,0.00,CLR,,0.00,WeatherDisplay:10.37,2013-01-04 14:57:00,
2013-01-05 02:02:00,69.8,56.6,29.35,South,180,0.0,0.0,63,0.00,CLR,,0.00,WeatherDisplay:10.37,2013-01-04 15:02:00,
2013-01-05 02:07:00,69.6,56.9,29.35,SE,135,0.0,0.0,64,0.00,CLR,,0.00,WeatherDisplay:10.37,2013-01-04 15:07:00,
2013-01-05 02:12:00,69.6,56.9,29.35,SE,135,0.0,0.0,64,0.00,CLR,,0.00,WeatherDisplay:10.37,2013-01-04 15:12:00,
2013-01-05 02:17:00,69.6,56.9,29.35,SE,135,0.0,0.0,64,0.00,CLR,,0.00,WeatherDisplay:10.37,2013-01-04 15:17:00,
2013-01-05 02:22:00,69.4,56.7,29.35,SSE,158,0.0,0.0,64,0.00,CLR,,0.00,WeatherDisplay:10.37,2013-01-04 15:22:00,
2013-01-05 02:27:00,69.3,56.6,29.35,South,180,0.0,0.0,64,0.00,CLR,,0.00,WeatherDisplay:10.37,2013-01-04 15:27:00,
2013-01-05 02:32:00,69.1,56.8,29.35,ENE,68,0.0,0.0,65,0.00,CLR,,0.00,WeatherDisplay:10.37,2013-01-04 15:32:00,
2013-01-05 02:37:00,69.1,56.8,29.35,SW,225,0.0,0.0,65,0.00,CLR,,0.00,WeatherDisplay:10.37,2013-01-04 15:37:00,
2013-01-05 02:42:00,68.9,57.1,29.35,East,90,0.0,0.0,66,0.00,CLR,,0.00,WeatherDisplay:10.37,2013-01-04 15:42:00,
2013-01-05 02:47:00,68.7,56.9,29.35,North,0,0.0,0.0,66,0.00,CLR,,0.00,WeatherDisplay:10.37,2013-01-04 15:47:00,
2013-01-05 02:52:00,68.7,56.9,29.35,SW,225,0.0,0.0,66,0.00,CLR,,0.00,WeatherDisplay:10.37,2013-01-04 15:52:00,
2013-01-05 02:57:00,68.5,56.7,29.35,NNE,22,0.0,0.0,66,0.00,CLR,,0.00,WeatherDisplay:10.37,2013-01-04 15:57:00,
2013-01-05 03:02:00,68.5,56.7,29.35,West,270,0.0,0.0,66,0.00,CLR,,0.00,WeatherDisplay:10.37,2013-01-04 16:02:00,
2013-01-05 03:07:00,68.4,56.6,29.35,West,270,0.0,0.0,66,0.00,CLR,,0.00,WeatherDisplay:10.37,2013-01-04 16:07:00,
2013-01-05 03:12:00,68.2,56.8,29.35,WNW,292,0.0,0.0,67,0.00,CLR,,0.00,WeatherDisplay:10.37,2013-01-04 16:12:00,
2013-01-05 03:17:00,68.0,56.2,29.35,West,270,0.0,0.0,66,0.00,CLR,,0.00,WeatherDisplay:10.37,2013-01-04 16:17:00,
2013-01-05 03:22:00,68.0,56.6,29.35,West,270,0.0,0.0,67,0.00,CLR,,0.00,WeatherDisplay:10.37,2013-01-04 16:22:00,
2013-01-05 03:27:00,67.8,56.5,29.35,SW,225,0.0,0.0,67,0.00,CLR,,0.00,WeatherDisplay:10.37,2013-01-04 16:27:00,
2013-01-05 03:32:00,67.8,56.5,29.35,West,270,0.0,0.0,67,0.00,CLR,,0.00,WeatherDisplay:10.37,2013-01-04 16:32:00,
2013-01-05 03:37:00,67.6,56.7,29.35,NNW,338,0.0,0.0,68,0.00,CLR,,0.00,WeatherDisplay:10.37,2013-01-04 16:37:00,
2013-01-05 03:42:00,67.6,56.7,29.35,NNE,22,0.0,0.0,68,0.00,CLR,,0.00,WeatherDisplay:10.37,2013-01-04 16:42:00,
2013-01-05 03:47:00,67.3,55.9,29.35,West,270,0.0,0.0,67,0.00,CLR,,0.00,WeatherDisplay:10.37,2013-01-04 16:47:00,
2013-01-05 03:52:00,67.3,56.4,29.35,WNW,292,0.0,0.0,68,0.00,CLR,,0.00,WeatherDisplay:10.37,2013-01-04 16:52:00,
2013-01-05 03:57:00,67.1,56.2,29.35,WSW,248,0.0,0.0,68,0.00,CLR,,0.00,WeatherDisplay:10.37,2013-01-04 16:57:00,
2013-01-05 04:02:00,67.1,56.6,29.38,SSW,202,0.0,0.0,69,0.00,CLR,,0.00,WeatherDisplay:10.37,2013-01-04 17:02:00,
2013-01-05 04:07:00,67.1,56.6,29.38,WNW,292,0.0,0.0,69,0.00,CLR,,0.00,WeatherDisplay:10.37,2013-01-04 17:07:00,
2013-01-05 04:12:00,66.9,56.4,29.38,NW,315,0.0,0.0,69,0.00,CLR,,0.00,WeatherDisplay:10.37,2013-01-04 17:12:00,
2013-01-05 04:17:00,66.9,56.4,29.38,West,270,0.0,0.0,69,0.00,CLR,,0.00,WeatherDisplay:10.37,2013-01-04 17:17:00,
2013-01-05 04:23:00,66.7,56.2,29.38,North,0,0.0,0.0,69,0.00,CLR,,0.00,WeatherDisplay:10.37,2013-01-04 17:23:00,
2013-01-05 04:28:00,66.6,56.1,29.38,North,0,0.0,0.0,69,0.00,CLR,,0.00,WeatherDisplay:10.37,2013-01-04 17:28:00,
2013-01-05 04:33:00,66.6,56.1,29.38,SE,135,0.0,0.0,69,0.00,CLR,,0.00,WeatherDisplay:10.37,2013-01-04 17:33:00,
2013-01-05 04:38:00,66.4,55.5,29.38,SSW,202,0.0,0.0,68,0.00,CLR,,0.00,WeatherDisplay:10.37,2013-01-04 17:38:00,
2013-01-05 04:43:00,66.4,55.9,29.38,WSW,248,0.0,0.0,69,0.00,CLR,,0.00,WeatherDisplay:10.37,2013-01-04 17:43:00,
2013-01-05 04:48:00,66.4,55.9,29.35,WNW,292,0.0,0.0,69,0.00,CLR,,0.00,WeatherDisplay:10.37,2013-01-04 17:48:00,
2013-01-05 04:53:00,66.4,55.9,29.35,West,270,0.0,0.0,69,0.00,CLR,,0.00,WeatherDisplay:10.37,2013-01-04 17:53:00,
2013-01-05 04:58:00,66.2,55.7,29.35,SSE,158,0.0,0.0,69,0.00,CLR,,0.00,WeatherDisplay:10.37,2013-01-04 17:58:00,
2013-01-05 05:03:00,66.0,56.0,29.38,ESE,112,0.0,0.0,70,0.00,CLR,,0.00,WeatherDisplay:10.37,2013-01-04 18:03:00,
2013-01-05 05:08:00,66.0,56.0,29.38,ESE,112,0.0,0.0,70,0.00,CLR,,0.00,WeatherDisplay:10.37,2013-01-04 18:08:00,
2013-01-05 05:13:00,65.8,55.8,29.38,ESE,112,0.0,0.0,70,0.00,CLR,,0.00,WeatherDisplay:10.37,2013-01-04 18:13:00,
2013-01-05 05:18:00,65.8,55.8,29.38,ENE,68,0.0,0.0,70,0.00,CLR,,0.00,WeatherDisplay:10.37,2013-01-04 18:18:00,
2013-01-05 05:23:00,65.8,55.8,29.38,ENE,68,0.0,0.0,70,0.00,CLR,,0.00,WeatherDisplay:10.37,2013-01-04 18:23:00,
2013-01-05 05:28:00,65.7,55.6,29.38,East,90,0.0,0.0,70,0.00,CLR,,0.00,WeatherDisplay:10.37,2013-01-04 18:28:00,
2013-01-05 05:33:00,65.5,55.4,29.38,East,90,0.0,0.0,70,0.00,CLR,,0.00,WeatherDisplay:10.37,2013-01-04 18:33:00,
2013-01-05 05:38:00,65.5,55.4,29.38,SE,135,0.0,0.0,70,0.00,CLR,,0.00,WeatherDisplay:10.37,2013-01-04 18:38:00,
2013-01-05 05:43:00,65.5,55.8,29.38,West,270,0.0,0.0,71,0.00,CLR,,0.00,WeatherDisplay:10.37,2013-01-04 18:43:00,
2013-01-05 05:48:00,65.3,55.7,29.41,SE,135,0.0,0.0,71,0.00,CLR,,0.00,WeatherDisplay:10.37,2013-01-04 18:48:00,
2013-01-05 05:53:00,65.3,55.7,29.41,SE,135,0.0,0.0,71,0.00,CLR,,0.00,WeatherDisplay:10.37,2013-01-04 18:53:00,
2013-01-05 05:58:00,65.1,55.5,29.41,West,270,0.0,0.0,71,0.00,CLR,,0.00,WeatherDisplay:10.37,2013-01-04 18:58:00,
2013-01-05 06:03:00,65.1,55.5,29.41,West,270,0.0,0.0,71,0.00,CLR,,0.00,WeatherDisplay:10.37,2013-01-04 19:03:00,
2013-01-05 06:08:00,64.9,55.3,29.41,SE,135,0.0,0.0,71,0.00,CLR,,0.00,WeatherDisplay:10.37,2013-01-04 19:08:00,
2013-01-05 06:13:00,64.9,55.3,29.41,SSE,158,0.0,0.0,71,0.00,CLR,,0.00,WeatherDisplay:10.37,2013-01-04 19:13:00,
2013-01-05 06:18:00,64.8,55.1,29.44,ESE,112,0.0,0.0,71,0.00,CLR,,0.00,WeatherDisplay:10.37,2013-01-04 19:18:00,
2013-01-05 06:23:00,64.8,55.5,29.44,WNW,292,0.0,0.0,72,0.00,CLR,,0.00,WeatherDisplay:10.37,2013-01-04 19:23:00,
2013-01-05 06:28:00,64.8,55.5,29.44,West,270,0.0,0.0,72,0.00,CLR,,0.00,WeatherDisplay:10.37,2013-01-04 19:28:00,
2013-01-05 06:33:00,64.8,55.5,29.44,West,270,0.0,0.0,72,0.00,CLR,,0.00,WeatherDisplay:10.37,2013-01-04 19:33:00,
2013-01-05 06:38:00,64.9,55.7,29.44,West,270,0.0,0.0,72,0.00,CLR,,0.00,WeatherDisplay:10.37,2013-01-04 19:38:00,
2013-01-05 06:43:00,64.8,55.5,29.44,SE,135,0.0,0.0,72,0.00,CLR,,0.00,WeatherDisplay:10.37,2013-01-04 19:43:00,
2013-01-05 06:48:00,64.9,55.7,29.44,ENE,68,0.0,0.0,72,0.00,CLR,,0.00,WeatherDisplay:10.37,2013-01-04 19:48:00,
2013-01-05 06:53:00,65.1,56.2,29.44,NW,315,0.0,0.0,73,0.00,CLR,,0.00,WeatherDisplay:10.37,2013-01-04 19:53:00,
2013-01-05 06:58:00,65.3,56.4,29.44,WNW,292,0.0,0.0,73,0.00,CLR,,0.00,WeatherDisplay:10.37,2013-01-04 19:58:00,
2013-01-05 07:03:00,65.7,57.1,29.44,NNW,338,0.0,0.0,74,0.00,CLR,,0.00,WeatherDisplay:10.37,2013-01-04 20:03:00,
2013-01-05 07:08:00,65.7,57.1,29.44,NNW,338,0.0,0.0,74,0.00,CLR,,0.00,WeatherDisplay:10.37,2013-01-04 20:08:00,
2013-01-05 07:13:00,65.8,57.3,29.44,NW,315,0.0,0.0,74,0.00,CLR,,0.00,WeatherDisplay:10.37,2013-01-04 20:13:00,
2013-01-05 07:18:00,66.0,57.9,29.44,NW,315,0.0,0.0,75,0.00,CLR,,0.00,WeatherDisplay:10.37,2013-01-04 20:18:00,
2013-01-05 07:23:00,66.2,57.7,29.44,WNW,292,0.0,0.0,74,0.00,CLR,,0.00,WeatherDisplay:10.37,2013-01-04 20:23:00,
2013-01-05 07:28:00,66.6,58.0,29.44,NW,315,0.0,0.0,74,0.00,CLR,,0.00,WeatherDisplay:10.37,2013-01-04 20:28:00,
2013-01-05 07:33:00,66.7,58.2,29.44,NW,315,0.0,0.0,74,0.00,CLR,,0.00,WeatherDisplay:10.37,2013-01-04 20:33:00,
2013-01-05 07:38:00,66.9,58.4,29.44,NW,315,0.0,0.0,74,0.00,CLR,,0.00,WeatherDisplay:10.37,2013-01-04 20:38:00,
2013-01-05 07:43:00,67.1,58.9,29.44,NNW,338,0.0,0.0,75,0.00,CLR,,0.00,WeatherDisplay:10.37,2013-01-04 20:43:00,
2013-01-05 07:48:00,67.5,59.3,29.44,NNW,338,0.0,0.0,75,0.00,CLR,,0.00,WeatherDisplay:10.37,2013-01-04 20:48:00,
2013-01-05 07:53:00,67.8,59.6,29.44,NNW,338,0.0,0.0,75,0.00,CLR,,0.00,WeatherDisplay:10.37,2013-01-04 20:53:00,
2013-01-05 07:58:00,68.4,60.1,29.44,NNW,338,0.0,0.0,75,0.00,CLR,,0.00,WeatherDisplay:10.37,2013-01-04 20:58:00,
2013-01-05 08:03:00,69.3,61.0,29.44,North,0,0.0,0.0,75,0.00,CLR,,0.00,WeatherDisplay:10.37,2013-01-04 21:03:00,
2013-01-05 08:08:00,70.2,61.5,29.44,NNW,338,0.0,0.0,74,0.00,CLR,,0.00,WeatherDisplay:10.37,2013-01-04 21:08:00,
2013-01-05 08:13:00,71.2,62.1,29.44,North,0,0.0,0.0,73,0.00,CLR,,0.00,WeatherDisplay:10.37,2013-01-04 21:13:00,
2013-01-05 08:18:00,72.3,62.4,29.44,NE,45,0.0,0.0,71,0.00,CLR,,0.00,WeatherDisplay:10.37,2013-01-04 21:18:00,
2013-01-05 08:23:00,73.0,62.7,29.44,NE,45,2.3,0.0,70,0.00,CLR,,0.00,WeatherDisplay:10.37,2013-01-04 21:23:00,
2013-01-05 08:28:00,74.1,63.3,29.44,NE,45,0.0,0.0,69,0.00,CLR,,0.00,WeatherDisplay:10.37,2013-01-04 21:28:00,
2013-01-05 08:33:00,75.0,63.7,29.44,NNE,22,1.6,1.6,68,0.00,CLR,,0.00,WeatherDisplay:10.37,2013-01-04 21:33:00,
2013-01-05 08:38:00,75.9,63.7,29.44,NNE,22,1.2,0.0,66,0.00,CLR,,0.00,WeatherDisplay:10.37,2013-01-04 21:38:00,
2013-01-05 08:43:00,76.6,64.0,29.44,NE,45,1.2,0.0,65,0.00,CLR,,0.00,WeatherDisplay:10.37,2013-01-04 21:43:00,
2013-01-05 08:48:00,77.4,63.8,29.44,NNE,22,0.0,0.0,63,0.00,CLR,,0.00,WeatherDisplay:10.37,2013-01-04 21:48:00,
2013-01-05 08:53:00,78.1,64.0,29.44,NNE,22,3.8,3.8,62,0.00,CLR,,0.00,WeatherDisplay:10.37,2013-01-04 21:53:00,
2013-01-05 08:58:00,78.6,64.0,29.44,SW,225,2.3,2.3,61,0.00,CLR,,0.00,WeatherDisplay:10.37,2013-01-04 21:58:00,
2013-01-05 09:03:00,79.9,64.8,29.41,NE,45,0.0,0.0,60,0.00,CLR,,0.00,WeatherDisplay:10.37,2013-01-04 22:03:00,
2013-01-05 09:08:00,80.8,64.1,29.41,NNE,22,2.6,2.6,57,0.00,CLR,,0.00,WeatherDisplay:10.37,2013-01-04 22:08:00,
2013-01-05 09:13:00,81.1,64.5,29.41,North,0,4.6,4.6,57,0.00,CLR,,0.00,WeatherDisplay:10.37,2013-01-04 22:13:00,
2013-01-05 09:18:00,81.7,63.9,29.44,NE,45,3.5,3.5,55,0.00,CLR,,0.00,WeatherDisplay:10.37,2013-01-04 22:18:00,
2013-01-05 09:23:00,82.4,64.1,29.44,NE,45,3.5,3.5,54,0.00,CLR,,0.00,WeatherDisplay:10.37,2013-01-04 22:23:00,
2013-01-05 09:28:00,82.9,63.5,29.44,NNE,22,3.5,3.5,52,0.00,CLR,,0.00,WeatherDisplay:10.37,2013-01-04 22:28:00,
2013-01-05 09:33:00,83.3,63.3,29.41,NNE,22,3.5,3.5,51,0.00,CLR,,0.00,WeatherDisplay:10.37,2013-01-04 22:33:00,
2013-01-05 09:38:00,83.8,63.8,29.41,NE,45,3.6,3.6,51,0.00,CLR,,0.00,WeatherDisplay:10.37,2013-01-04 22:38:00,
2013-01-05 09:43:00,84.2,63.0,29.41,NE,45,2.9,2.9,49,0.00,CLR,,0.00,WeatherDisplay:10.37,2013-01-04 22:43:00,
2013-01-05 09:48:00,84.7,62.9,29.44,NE,45,3.5,3.5,48,0.00,CLR,,0.00,WeatherDisplay:10.37,2013-01-04 22:48:00,
2013-01-05 09:53:00,85.5,63.5,29.44,SE,135,4.7,4.7,48,0.00,CLR,,0.00,WeatherDisplay:10.37,2013-01-04 22:53:00,
2013-01-05 09:58:00,86.5,63.9,29.44,NE,45,2.3,2.6,47,0.00,CLR,,0.00,WeatherDisplay:10.37,2013-01-04 22:58:00,
2013-01-05 10:03:00,86.7,63.5,29.44,ESE,112,2.3,2.4,46,0.00,CLR,,0.00,WeatherDisplay:10.37,2013-01-04 23:03:00,
2013-01-05 10:08:00,87.3,62.7,29.44,East,90,3.5,3.5,44,0.00,CLR,,0.00,WeatherDisplay:10.37,2013-01-04 23:08:00,
2013-01-05 10:13:00,87.4,63.5,29.44,NE,45,1.2,0.0,45,0.00,CLR,,0.00,WeatherDisplay:10.37,2013-01-04 23:13:00,
2013-01-05 10:18:00,88.9,64.1,29.41,NE,45,4.6,4.6,44,0.00,CLR,,0.00,WeatherDisplay:10.37,2013-01-04 23:18:00,
2013-01-05 10:23:00,89.6,64.1,29.41,ENE,68,3.5,3.5,43,0.00,CLR,,0.00,WeatherDisplay:10.37,2013-01-04 23:23:00,
2013-01-05 10:28:00,90.1,64.0,29.41,North,0,3.5,3.5,42,0.00,CLR,,0.00,WeatherDisplay:10.37,2013-01-04 23:28:00,
2013-01-05 10:33:00,90.7,64.4,29.41,NE,45,3.5,3.5,42,0.00,CLR,,0.00,WeatherDisplay:10.37,2013-01-04 23:33:00,
2013-01-05 10:38:00,90.5,63.6,29.41,ENE,68,2.3,2.3,41,0.00,CLR,,0.00,WeatherDisplay:10.37,2013-01-04 23:38:00,
2013-01-05 10:43:00,90.9,63.9,29.41,ESE,112,2.3,2.3,41,0.00,CLR,,0.00,WeatherDisplay:10.37,2013-01-04 23:43:00,
2013-01-05 10:48:00,91.8,64.0,29.38,NNE,22,3.5,3.5,40,0.00,CLR,,0.00,WeatherDisplay:10.37,2013-01-04 23:48:00,
2013-01-05 10:53:00,92.3,64.5,29.38,SSE,158,3.5,3.5,40,0.00,CLR,,0.00,WeatherDisplay:10.37,2013-01-04 23:53:00,
2013-01-05 10:59:00,93.2,63.8,29.38,North,0,3.5,3.5,38,0.00,CLR,,0.00,WeatherDisplay:10.37,2013-01-04 23:59:00,
2013-01-05 11:04:00,93.2,63.1,29.38,NNE,22,3.5,3.5,37,0.00,CLR,,0.00,WeatherDisplay:10.37,2013-01-05 00:04:00,
2013-01-05 11:09:00,93.9,64.5,29.38,North,0,5.8,5.8,38,0.00,CLR,,0.00,WeatherDisplay:10.37,2013-01-05 00:09:00,
2013-01-05 11:14:00,94.1,63.9,29.38,East,90,3.5,3.5,37,0.00,CLR,,0.00,WeatherDisplay:10.37,2013-01-05 00:14:00,
2013-01-05 11:19:00,94.1,63.9,29.38,SE,135,3.5,3.5,37,0.00,CLR,,0.00,WeatherDisplay:10.37,2013-01-05 00:19:00,
2013-01-05 11:24:00,94.8,62.9,29.38,ENE,68,3.6,3.6,35,0.00,CLR,,0.00,WeatherDisplay:10.37,2013-01-05 00:24:00,
2013-01-05 11:29:00,95.5,64.3,29.38,ESE,112,2.4,2.4,36,0.00,CLR,,0.00,WeatherDisplay:10.37,2013-01-05 00:29:00,
2013-01-05 11:34:00,96.1,63.2,29.38,NE,45,2.3,2.3,34,0.00,CLR,,0.00,WeatherDisplay:10.37,2013-01-05 00:34:00,
2013-01-05 11:39:00,95.9,62.2,29.38,ENE,68,2.6,2.6,33,0.00,CLR,,0.00,WeatherDisplay:10.37,2013-01-05 00:39:00,
2013-01-05 11:44:00,96.8,62.1,29.38,East,90,3.5,3.5,32,0.00,CLR,,0.00,WeatherDisplay:10.37,2013-01-05 00:44:00,
2013-01-05 11:49:00,97.0,62.2,29.38,NE,45,3.8,3.8,32,0.00,CLR,,0.00,WeatherDisplay:10.37,2013-01-05 00:49:00,
2013-01-05 11:54:00,97.3,61.6,29.38,NNE,22,4.6,4.6,31,0.00,CLR,,0.00,WeatherDisplay:10.37,2013-01-05 00:54:00,
2013-01-05 11:59:00,97.5,60.9,29.38,SE,135,2.3,2.4,30,0.00,CLR,,0.00,WeatherDisplay:10.37,2013-01-05 00:59:00,
2013-01-05 12:04:00,97.5,60.9,29.35,ESE,112,4.6,4.6,30,0.00,CLR,,0.00,WeatherDisplay:10.37,2013-01-05 01:04:00,
2013-01-05 12:09:00,97.9,61.2,29.35,East,90,0.0,1.2,30,0.00,CLR,,0.00,WeatherDisplay:10.37,2013-01-05 01:09:00,
2013-01-05 12:14:00,98.6,60.8,29.35,North,0,3.5,3.5,29,0.00,CLR,,0.00,WeatherDisplay:10.37,2013-01-05 01:14:00,
2013-01-05 12:19:00,98.8,61.0,29.35,East,90,5.8,5.8,29,0.00,CLR,,0.00,WeatherDisplay:10.37,2013-01-05 01:19:00,
2013-01-05 12:24:00,97.9,59.2,29.35,SE,135,5.9,5.9,28,0.00,CLR,,0.00,WeatherDisplay:10.37,2013-01-05 01:24:00,
2013-01-05 12:29:00,99.0,60.2,29.35,East,90,3.5,3.5,28,0.00,CLR,,0.00,WeatherDisplay:10.37,2013-01-05 01:29:00,
2013-01-05 12:34:00,99.1,60.3,29.32,ENE,68,3.5,3.5,28,0.00,CLR,,0.00,WeatherDisplay:10.37,2013-01-05 01:34:00,
2013-01-05 12:39:00,98.8,60.0,29.32,East,90,4.6,4.6,28,0.00,CLR,,0.00,WeatherDisplay:10.37,2013-01-05 01:39:00,
2013-01-05 12:44:00,99.3,60.5,29.32,NE,45,4.9,4.9,28,0.00,CLR,,0.00,WeatherDisplay:10.37,2013-01-05 01:44:00,
2013-01-05 12:49:00,99.1,59.3,29.32,NNE,22,3.5,3.5,27,0.00,CLR,,0.00,WeatherDisplay:10.37,2013-01-05 01:49:00,
2013-01-05 12:54:00,100.0,60.1,29.32,SW,225,2.4,2.4,27,0.00,CLR,,0.00,WeatherDisplay:10.37,2013-01-05 01:54:00,
2013-01-05 12:59:00,100.6,60.5,29.32,SE,135,4.6,4.6,27,0.00,CLR,,0.00,WeatherDisplay:10.37,2013-01-05 01:59:00,
2013-01-05 13:04:00,100.6,59.5,29.32,NE,45,4.6,4.6,26,0.00,CLR,,0.00,WeatherDisplay:10.37,2013-01-05 02:04:00,
2013-01-05 13:09:00,99.9,58.8,29.32,ENE,68,3.5,3.6,26,0.00,CLR,,0.00,WeatherDisplay:10.37,2013-01-05 02:09:00,
2013-01-05 13:14:00,100.9,59.8,29.32,South,180,4.6,4.6,26,0.00,CLR,,0.00,WeatherDisplay:10.37,2013-01-05 02:14:00,
2013-01-05 13:19:00,101.7,60.4,29.32,East,90,4.7,4.7,26,0.00,CLR,,0.00,WeatherDisplay:10.37,2013-01-05 02:19:00,
2013-01-05 13:24:00,101.3,60.1,29.32,NE,45,3.5,3.5,26,0.00,CLR,,0.00,WeatherDisplay:10.37,2013-01-05 02:24:00,
2013-01-05 13:29:00,100.9,58.7,29.32,East,90,4.6,4.6,25,0.00,CLR,,0.00,WeatherDisplay:10.37,2013-01-05 02:29:00,
2013-01-05 13:34:00,101.5,59.1,29.32,South,180,6.0,6.0,25,0.00,CLR,,0.00,WeatherDisplay:10.37,2013-01-05 02:34:00,
2013-01-05 13:39:00,102.0,59.6,29.32,NE,45,3.5,3.5,25,0.00,CLR,,0.00,WeatherDisplay:10.37,2013-01-05 02:39:00,
2013-01-05 13:44:00,101.8,59.4,29.32,NE,45,3.5,3.5,25,0.00,CLR,,0.00,WeatherDisplay:10.37,2013-01-05 02:44:00,
2013-01-05 13:49:00,101.5,59.1,29.32,NE,45,3.5,3.5,25,0.00,CLR,,0.00,WeatherDisplay:10.37,2013-01-05 02:49:00,
2013-01-05 13:54:00,101.7,58.1,29.32,NW,315,5.8,5.8,24,0.00,CLR,,0.00,WeatherDisplay:10.37,2013-01-05 02:54:00,
2013-01-05 13:59:00,102.0,58.4,29.32,NE,45,4.6,4.6,24,0.00,CLR,,0.00,WeatherDisplay:10.37,2013-01-05 02:59:00,
2013-01-05 14:04:00,101.5,55.6,29.32,NE,45,2.6,2.6,22,0.00,CLR,,0.00,WeatherDisplay:10.37,2013-01-05 03:04:00,
2013-01-05 14:09:00,101.8,55.9,29.32,NE,45,3.6,3.6,22,0.00,CLR,,0.00,WeatherDisplay:10.37,2013-01-05 03:09:00,
2013-01-05 14:14:00,101.7,53.1,29.32,NE,45,4.6,4.6,20,0.00,CLR,,0.00,WeatherDisplay:10.37,2013-01-05 03:14:00,
2013-01-05 14:19:00,101.8,51.8,29.29,NE,45,3.8,3.8,19,0.00,CLR,,0.00,WeatherDisplay:10.37,2013-01-05 03:19:00,
2013-01-05 14:24:00,101.8,51.8,29.29,East,90,3.5,3.5,19,0.00,CLR,,0.00,WeatherDisplay:10.37,2013-01-05 03:24:00,
2013-01-05 14:29:00,102.0,52.0,29.29,South,180,4.6,4.6,19,0.00,CLR,,0.00,WeatherDisplay:10.37,2013-01-05 03:29:00,
2013-01-05 14:34:00,102.4,52.3,29.29,East,90,3.8,3.8,19,0.00,CLR,,0.00,WeatherDisplay:10.37,2013-01-05 03:34:00,
2013-01-05 14:39:00,102.7,52.6,29.29,NNW,338,3.6,3.6,19,0.00,CLR,,0.00,WeatherDisplay:10.37,2013-01-05 03:39:00,
2013-01-05 14:44:00,102.4,50.8,29.29,NE,45,5.8,5.8,18,0.00,CLR,,0.00,WeatherDisplay:10.37,2013-01-05 03:44:00,
2013-01-05 14:49:00,102.7,51.1,29.29,NW,315,2.3,2.3,18,0.00,CLR,,0.00,WeatherDisplay:10.37,2013-01-05 03:49:00,
2013-01-05 14:54:00,102.9,51.3,29.29,ENE,68,2.3,2.3,18,0.00,CLR,,0.00,WeatherDisplay:10.37,2013-01-05 03:54:00,
2013-01-05 14:59:00,102.4,50.8,29.29,ENE,68,4.6,4.6,18,0.00,CLR,,0.00,WeatherDisplay:10.37,2013-01-05 03:59:00,
2013-01-05 15:04:00,102.4,52.3,29.26,ESE,112,4.6,4.6,19,0.00,CLR,,0.00,WeatherDisplay:10.37,2013-01-05 04:04:00,
2013-01-05 15:09:00,102.0,50.5,29.26,East,90,5.8,5.8,18,0.00,CLR,,0.00,WeatherDisplay:10.37,2013-01-05 04:09:00,
2013-01-05 15:14:00,102.2,50.7,29.26,East,90,10.4,10.4,18,0.00,CLR,,0.00,WeatherDisplay:10.37,2013-01-05 04:14:00,
2013-01-05 15:19:00,102.4,50.8,29.26,NNE,22,3.8,3.8,18,0.00,CLR,,0.00,WeatherDisplay:10.37,2013-01-05 04:19:00,
2013-01-05 15:24:00,102.4,52.3,29.26,NNE,22,4.3,4.3,19,0.00,CLR,,0.00,WeatherDisplay:10.37,2013-01-05 04:24:00,
2013-01-05 15:29:00,102.2,50.7,29.26,North,0,5.8,5.8,18,0.00,CLR,,0.00,WeatherDisplay:10.37,2013-01-05 04:29:00,
2013-01-05 15:34:00,101.5,50.1,29.26,NE,45,4.6,4.6,18,0.00,CLR,,0.00,WeatherDisplay:10.37,2013-01-05 04:34:00,
2013-01-05 15:39:00,101.3,49.9,29.26,NNW,338,3.5,3.5,18,0.00,CLR,,0.00,WeatherDisplay:10.37,2013-01-05 04:39:00,
2013-01-05 15:44:00,101.5,50.1,29.26,North,0,2.3,2.4,18,0.00,CLR,,0.00,WeatherDisplay:10.37,2013-01-05 04:44:00,
2013-01-05 15:49:00,101.5,50.1,29.26,North,0,4.3,4.3,18,0.00,CLR,,0.00,WeatherDisplay:10.37,2013-01-05 04:49:00,
2013-01-05 15:54:00,101.3,49.9,29.26,NNE,22,2.6,3.1,18,0.00,CLR,,0.00,WeatherDisplay:10.37,2013-01-05 04:54:00,
2013-01-05 15:59:00,100.9,49.7,29.26,NNE,22,5.6,5.6,18,0.00,CLR,,0.00,WeatherDisplay:10.37,2013-01-05 04:59:00,
2013-01-05 16:00:00,100.9,49.7,29.26,NE,45,5.8,5.8,18,0.00,CLR,,0.00,WeatherDisplay:10.37,2013-01-05 05:00:00,
2013-01-05 16:05:00,100.8,49.5,29.26,NNE,22,3.6,3.6,18,0.00,CLR,,0.00,WeatherDisplay:10.37,2013-01-05 05:05:00,
2013-01-05 16:10:00,100.8,49.5,29.26,NNE,22,5.8,5.8,18,0.00,CLR,,0.00,WeatherDisplay:10.37,2013-01-05 05:10:00,
2013-01-05 16:15:00,100.6,49.4,29.26,NNW,338,3.5,3.5,18,0.00,CLR,,0.00,WeatherDisplay:10.37,2013-01-05 05:15:00,
2013-01-05 16:20:00,100.9,49.7,29.26,NNE,22,2.3,2.3,18,0.00,CLR,,0.00,WeatherDisplay:10.37,2013-01-05 05:20:00,
2013-01-05 16:25:00,100.8,49.5,29.26,North,0,3.5,3.5,18,0.00,CLR,,0.00,WeatherDisplay:10.37,2013-01-05 05:25:00,
2013-01-05 16:30:00,100.6,49.4,29.26,ENE,68,3.5,3.5,18,0.00,CLR,,0.00,WeatherDisplay:10.37,2013-01-05 05:30:00,
2013-01-05 16:35:00,100.4,49.2,29.26,NE,45,5.6,5.6,18,0.00,CLR,,0.00,WeatherDisplay:10.37,2013-01-05 05:35:00,
2013-01-05 16:40:00,100.2,50.5,29.26,NNE,22,3.5,3.5,19,0.00,CLR,,0.00,WeatherDisplay:10.37,2013-01-05 05:40:00,
2013-01-05 16:45:00,100.0,50.4,29.26,ESE,112,4.6,4.6,19,0.00,CLR,,0.00,WeatherDisplay:10.37,2013-01-05 05:45:00,
2013-01-05 16:50:00,99.5,51.3,29.26,East,90,5.8,5.8,20,0.00,CLR,,0.00,WeatherDisplay:10.37,2013-01-05 05:50:00,
2013-01-05 16:55:00,99.1,51.0,29.26,ENE,68,5.8,6.0,20,0.00,CLR,,0.00,WeatherDisplay:10.37,2013-01-05 05:55:00,
2013-01-05 17:00:00,98.8,52.1,29.26,NE,45,2.6,2.6,21,0.00,CLR,,0.00,WeatherDisplay:10.37,2013-01-05 06:00:00,
2013-01-05 17:05:00,98.8,53.3,29.26,East,90,6.9,6.9,22,0.00,CLR,,0.00,WeatherDisplay:10.37,2013-01-05 06:05:00,
2013-01-05 17:10:00,98.4,53.0,29.26,SSE,158,9.0,9.0,22,0.00,CLR,,0.00,WeatherDisplay:10.37,2013-01-05 06:10:00,
2013-01-05 17:15:00,98.4,53.0,29.26,NNE,22,2.4,2.4,22,0.00,CLR,,0.00,WeatherDisplay:10.37,2013-01-05 06:15:00,
2013-01-05 17:20:00,98.2,54.1,29.26,SSE,158,3.5,3.5,23,0.00,CLR,,0.00,WeatherDisplay:10.37,2013-01-05 06:20:00,
2013-01-05 17:25:00,97.7,53.6,29.26,SE,135,5.8,5.8,23,0.00,CLR,,0.00,WeatherDisplay:10.37,2013-01-05 06:25:00,
2013-01-05 17:30:00,97.3,53.3,29.26,ESE,112,4.6,6.2,23,0.00,CLR,,0.00,WeatherDisplay:10.37,2013-01-05 06:30:00,
2013-01-05 17:35:00,97.2,54.4,29.26,ENE,68,3.5,3.5,24,0.00,CLR,,0.00,WeatherDisplay:10.37,2013-01-05 06:35:00,
2013-01-05 17:40:00,97.0,54.2,29.26,ESE,112,8.1,8.1,24,0.00,CLR,,0.00,WeatherDisplay:10.37,2013-01-05 06:40:00,
2013-01-05 17:45:00,96.6,55.0,29.26,ESE,112,3.8,4.0,25,0.00,CLR,,0.00,WeatherDisplay:10.37,2013-01-05 06:45:00,
2013-01-05 17:50:00,96.1,54.6,29.26,ESE,112,8.5,8.5,25,0.00,CLR,,0.00,WeatherDisplay:10.37,2013-01-05 06:50:00,
2013-01-05 17:55:00,95.5,54.1,29.26,ESE,112,8.1,8.1,25,0.00,CLR,,0.00,WeatherDisplay:10.37,2013-01-05 06:55:00,
2013-01-05 18:00:00,95.0,54.7,29.26,ESE,112,8.1,8.1,26,0.00,CLR,,0.00,WeatherDisplay:10.37,2013-01-05 07:00:00,
2013-01-05 18:05:00,94.6,54.4,29.26,East,90,6.9,6.9,26,0.00,CLR,,0.00,WeatherDisplay:10.37,2013-01-05 07:05:00,
2013-01-05 18:10:00,94.5,54.3,29.26,NE,45,4.6,4.6,26,0.00,CLR,,0.00,WeatherDisplay:10.37,2013-01-05 07:10:00,
2013-01-05 18:15:00,94.1,54.0,29.26,ENE,68,5.8,5.8,26,0.00,CLR,,0.00,WeatherDisplay:10.37,2013-01-05 07:15:00,
2013-01-05 18:20:00,93.7,53.7,29.26,ESE,112,4.6,4.6,26,0.00,CLR,,0.00,WeatherDisplay:10.37,2013-01-05 07:20:00,
2013-01-05 18:25:00,93.6,53.5,29.26,North,0,4.6,4.6,26,0.00,CLR,,0.00,WeatherDisplay:10.37,2013-01-05 07:25:00,
2013-01-05 18:30:00,93.2,53.2,29.26,NE,55,2.0,6.0,26,0.00,CLR,,0.00,WeatherDisplay:10.37,2013-01-05 07:30:00,
2013-01-05 18:35:00,92.7,52.8,29.26,SE,135,4.6,4.6,26,0.00,CLR,,0.00,WeatherDisplay:10.37,2013-01-05 07:35:00,
2013-01-05 18:40:00,92.5,53.6,29.26,NE,45,4.3,4.3,27,0.00,CLR,,0.00,WeatherDisplay:10.37,2013-01-05 07:40:00,
2013-01-05 18:45:00,92.1,53.3,29.26,ENE,59,1.0,5.0,27,0.00,CLR,,0.00,WeatherDisplay:10.37,2013-01-05 07:45:00,
2013-01-05 18:50:00,91.8,54.0,29.26,NNE,22,4.0,4.0,28,0.00,CLR,,0.00,WeatherDisplay:10.37,2013-01-05 07:50:00,
2013-01-05 18:55:00,91.6,53.9,29.26,East,90,2.4,2.4,28,0.00,CLR,,0.00,WeatherDisplay:10.37,2013-01-05 07:55:00,
2013-01-05 19:00:00,91.2,54.5,29.26,East,80,0.0,6.0,29,0.00,CLR,,0.00,WeatherDisplay:10.37,2013-01-05 08:00:00,
2013-01-05 19:05:00,90.9,55.1,29.29,NE,45,4.6,4.6,30,0.00,CLR,,0.00,WeatherDisplay:10.37,2013-01-05 08:05:00,
2013-01-05 19:10:00,90.5,54.8,29.29,NE,45,4.9,4.9,30,0.00,CLR,,0.00,WeatherDisplay:10.37,2013-01-05 08:10:00,
2013-01-05 19:15:00,90.1,54.5,29.29,NE,45,3.5,3.5,30,0.00,CLR,,0.00,WeatherDisplay:10.37,2013-01-05 08:15:00,
2013-01-05 19:20:00,89.8,55.1,29.29,SSE,158,3.5,3.5,31,0.00,CLR,,0.00,WeatherDisplay:10.37,2013-01-05 08:20:00,
2013-01-05 19:25:00,89.4,55.7,29.29,NE,45,2.4,2.4,32,0.00,CLR,,0.00,WeatherDisplay:10.37,2013-01-05 08:25:00,
2013-01-05 19:30:00,89.1,55.4,29.29,NE,47,2.0,6.0,32,0.00,CLR,,0.00,WeatherDisplay:10.37,2013-01-05 08:30:00,
2013-01-05 19:35:00,88.7,55.9,29.29,NE,45,2.3,2.3,33,0.00,CLR,,0.00,WeatherDisplay:10.37,2013-01-05 08:35:00,
2013-01-05 19:40:00,88.3,56.4,29.29,NE,45,4.6,4.6,34,0.00,CLR,,0.00,WeatherDisplay:10.37,2013-01-05 08:40:00,
2013-01-05 19:45:00,88.0,56.9,29.29,NE,45,5.8,5.8,35,0.00,CLR,,0.00,WeatherDisplay:10.37,2013-01-05 08:45:00,
2013-01-05 19:50:00,87.6,55.8,29.32,NE,45,3.5,3.5,34,0.00,CLR,,0.00,WeatherDisplay:10.37,2013-01-05 08:50:00,
2013-01-05 19:56:00,87.3,55.5,29.32,NNE,22,4.6,0.0,34,0.00,CLR,,0.00,WeatherDisplay:10.37,2013-01-05 08:56:00,
2013-01-05 20:01:00,87.1,56.1,29.32,NE,45,2.3,0.0,35,0.00,CLR,,0.00,WeatherDisplay:10.37,2013-01-05 09:01:00,
2013-01-05 20:06:00,86.7,55.8,29.32,East,90,2.3,2.3,35,0.00,CLR,,0.00,WeatherDisplay:10.37,2013-01-05 09:06:00,
2013-01-05 20:11:00,86.4,56.3,29.32,SSE,158,3.5,3.5,36,0.00,CLR,,0.00,WeatherDisplay:10.37,2013-01-05 09:11:00,
2013-01-05 20:16:00,86.0,57.4,29.32,ENE,68,2.3,0.0,38,0.00,CLR,,0.00,WeatherDisplay:10.37,2013-01-05 09:16:00,
2013-01-05 20:21:00,85.6,57.8,29.32,ESE,112,8.1,8.1,39,0.00,CLR,,0.00,WeatherDisplay:10.37,2013-01-05 09:21:00,
2013-01-05 20:26:00,85.3,58.2,29.32,SSE,158,3.5,3.5,40,0.00,CLR,,0.00,WeatherDisplay:10.37,2013-01-05 09:26:00,
2013-01-05 20:31:00,84.9,58.6,29.32,ESE,112,4.6,4.6,41,0.00,CLR,,0.00,WeatherDisplay:10.37,2013-01-05 09:31:00,
2013-01-05 20:36:00,84.7,58.4,29.32,ENE,68,3.6,3.6,41,0.00,CLR,,0.00,WeatherDisplay:10.37,2013-01-05 09:36:00,
2013-01-05 20:41:00,84.6,58.3,29.32,West,270,4.6,4.6,41,0.00,CLR,,0.00,WeatherDisplay:10.37,2013-01-05 09:41:00,
2013-01-05 20:46:00,84.2,57.9,29.32,NNW,338,3.5,3.5,41,0.00,CLR,,0.00,WeatherDisplay:10.37,2013-01-05 09:46:00,
2013-01-05 20:51:00,83.8,58.3,29.32,NE,45,2.6,2.6,42,0.00,CLR,,0.00,WeatherDisplay:10.37,2013-01-05 09:51:00,
2013-01-05 20:56:00,83.7,58.8,29.32,NNE,22,4.6,4.6,43,0.00,CLR,,0.00,WeatherDisplay:10.37,2013-01-05 09:56:00,
2013-01-05 21:01:00,83.5,58.6,29.32,ENE,68,3.5,3.5,43,0.00,CLR,,0.00,WeatherDisplay:10.37,2013-01-05 10:01:00,
2013-01-05 21:06:00,83.1,58.9,29.32,NE,45,3.5,3.5,44,0.00,CLR,,0.00,WeatherDisplay:10.37,2013-01-05 10:06:00,
2013-01-05 21:11:00,82.9,59.4,29.32,ENE,68,0.0,0.0,45,0.00,CLR,,0.00,WeatherDisplay:10.37,2013-01-05 10:11:00,
2013-01-05 21:16:00,82.6,59.1,29.32,SE,135,4.9,4.9,45,0.00,CLR,,0.00,WeatherDisplay:10.37,2013-01-05 10:16:00,
2013-01-05 21:21:00,82.4,59.5,29.35,NE,45,2.3,0.0,46,0.00,CLR,,0.00,WeatherDisplay:10.37,2013-01-05 10:21:00,
2013-01-05 21:26:00,82.0,59.8,29.35,East,90,3.5,3.5,47,0.00,CLR,,0.00,WeatherDisplay:10.37,2013-01-05 10:26:00,
2013-01-05 21:31:00,81.9,59.7,29.35,ESE,112,4.6,0.0,47,0.00,CLR,,0.00,WeatherDisplay:10.37,2013-01-05 10:31:00,
2013-01-05 21:36:00,81.5,59.9,29.35,East,90,0.0,0.0,48,0.00,CLR,,0.00,WeatherDisplay:10.37,2013-01-05 10:36:00,
2013-01-05 21:41:00,81.1,59.6,29.35,SSE,158,2.3,2.3,48,0.00,CLR,,0.00,WeatherDisplay:10.37,2013-01-05 10:41:00,
2013-01-05 21:46:00,81.0,60.0,29.35,NE,45,2.3,0.0,49,0.00,CLR,,0.00,WeatherDisplay:10.37,2013-01-05 10:46:00,
2013-01-05 21:51:00,80.8,60.4,29.35,NE,45,2.2,2.2,50,0.00,CLR,,0.00,WeatherDisplay:10.37,2013-01-05 10:51:00,
2013-01-05 21:56:00,80.4,60.6,29.35,East,90,1.2,0.0,51,0.00,CLR,,0.00,WeatherDisplay:10.37,2013-01-05 10:56:00,
2013-01-05 22:01:00,80.4,61.2,29.35,ESE,112,0.0,0.0,52,0.00,CLR,,0.00,WeatherDisplay:10.37,2013-01-05 11:01:00,
2013-01-05 22:06:00,80.1,61.4,29.38,NE,45,1.2,1.2,53,0.00,CLR,,0.00,WeatherDisplay:10.37,2013-01-05 11:06:00,
2013-01-05 22:11:00,79.9,61.2,29.38,NE,45,2.4,2.4,53,0.00,CLR,,0.00,WeatherDisplay:10.37,2013-01-05 11:11:00,
2013-01-05 22:16:00,79.5,61.4,29.38,ENE,68,0.0,0.0,54,0.00,CLR,,0.00,WeatherDisplay:10.37,2013-01-05 11:16:00,
2013-01-05 22:21:00,79.3,61.2,29.38,ESE,112,2.3,2.3,54,0.00,CLR,,0.00,WeatherDisplay:10.37,2013-01-05 11:21:00,
2013-01-05 22:26:00,79.0,60.9,29.38,North,0,0.0,0.0,54,0.00,CLR,,0.00,WeatherDisplay:10.37,2013-01-05 11:26:00,
2013-01-05 22:31:00,79.0,61.4,29.38,East,90,0.0,0.0,55,0.00,CLR,,0.00,WeatherDisplay:10.37,2013-01-05 11:31:00,
2013-01-05 22:36:00,78.6,61.1,29.38,NE,45,2.4,2.4,55,0.00,CLR,,0.00,WeatherDisplay:10.37,2013-01-05 11:36:00,
2013-01-05 22:41:00,78.4,61.4,29.38,NE,45,3.5,3.5,56,0.00,CLR,,0.00,WeatherDisplay:10.37,2013-01-05 11:41:00,
2013-01-05 22:46:00,78.3,61.3,29.38,NE,45,3.3,3.3,56,0.00,CLR,,0.00,WeatherDisplay:10.37,2013-01-05 11:46:00,
2013-01-05 22:51:00,77.9,61.4,29.35,NE,45,3.5,3.5,57,0.00,CLR,,0.00,WeatherDisplay:10.37,2013-01-05 11:51:00,
2013-01-05 22:56:00,77.5,61.6,29.35,SSE,158,3.6,3.6,58,0.00,CLR,,0.00,WeatherDisplay:10.37,2013-01-05 11:56:00,
2013-01-05 23:01:00,77.4,61.4,29.35,NE,45,3.5,3.5,58,0.00,CLR,,0.00,WeatherDisplay:10.37,2013-01-05 12:01:00,
2013-01-05 23:06:00,77.0,61.6,29.38,ENE,68,3.5,3.5,59,0.00,CLR,,0.00,WeatherDisplay:10.37,2013-01-05 12:06:00,
2013-01-05 23:11:00,77.0,61.6,29.38,NNE,22,2.9,2.9,59,0.00,CLR,,0.00,WeatherDisplay:10.37,2013-01-05 12:11:00,
2013-01-05 23:16:00,76.6,61.2,29.38,NNE,22,4.0,4.0,59,0.00,CLR,,0.00,WeatherDisplay:10.37,2013-01-05 12:16:00,
2013-01-05 23:21:00,76.5,61.1,29.38,NNE,22,0.0,0.0,59,0.00,CLR,,0.00,WeatherDisplay:10.37,2013-01-05 12:21:00,
2013-01-05 23:26:00,76.3,61.4,29.38,NE,45,3.5,3.5,60,0.00,CLR,,0.00,WeatherDisplay:10.37,2013-01-05 12:26:00,
2013-01-05 23:31:00,76.3,61.4,29.38,ENE,68,1.2,1.4,60,0.00,CLR,,0.00,WeatherDisplay:10.37,2013-01-05 12:31:00,
2013-01-05 23:36:00,76.1,61.2,29.38,NNE,22,3.5,0.0,60,0.00,CLR,,0.00,WeatherDisplay:10.37,2013-01-05 12:36:00,
2013-01-05 23:41:00,75.9,61.0,29.38,NNE,22,2.4,0.0,60,0.00,CLR,,0.00,WeatherDisplay:10.37,2013-01-05 12:41:00,
2013-01-05 23:46:00,75.9,61.0,29.38,East,90,0.0,0.0,60,0.00,CLR,,0.00,WeatherDisplay:10.37,2013-01-05 12:46:00,
2013-01-05 23:51:00,75.7,60.9,29.38,NNE,22,1.2,1.2,60,0.00,CLR,,0.00,WeatherDisplay:10.37,2013-01-05 12:51:00,
2013-01-05 23:56:00,75.7,61.3,29.38,NE,45,0.0,0.0,61,0.00,CLR,,0.00,WeatherDisplay:10.37,2013-01-05 12:56:00,